Lebanon, NH

3:11 PM EDT on March 24, 2017 (GMT -0400)
Lebanon Municipal

Weather History for KLEB - July, 2012

Change the Weather History Date:

Monday, July 9, 2012

  Actual Average Record
Temperature  
Mean Temperature 64 °F -  
Max Temperature 80 °F 84 °F 101 °F (1988)
Min Temperature 48 °F 59 °F 43 °F (1969)
Degree Days  
Heating Degree Days 1    
Growing Degree Days 14 (Base 50)    
Moisture  
Dew Point 47 °F    
Average Humidity 64    
Maximum Humidity 94    
Minimum Humidity 24    
Precipitation  
Precipitation 0.00 in - - ()
Sea Level Pressure  
Sea Level Pressure 29.93 in    
Wind  
Wind Speed 2 mph (NNW)    
Max Wind Speed 14 mph    
Max Gust Speed 20 mph    
Visibility 9 miles    
Events      
Averages and records for this station are not official NWS values.
T = Trace of Precipitation, MM = Missing Value Source: NWS Daily Summary

Daily Weather History Graph

Daily Weather History Graph

Search for Another Location

Airport or City:

Trip Planner

Search our weather history database for the weather conditions in past years. The results will help you decide how hot, cold, wet, or windy it might be!

Date:

Astronomy

Jul. 09, 2012 Rise Set
Actual Time 5:17 AM EDT 8:31 PM EDT
Civil Twilight 4:41 AM EDT 9:06 PM EDT
Nautical Twilight 3:56 AM EDT 9:52 PM EDT
Astronomical Twilight 3:00 AM EDT 10:47 PM EDT
Moon 11:30 PM EDT (7/9) 11:55 AM EDT (7/9)
Length of Visible Light 16h 24m
Length of Day
15h 14m
Waning Gibbous, 64% of the Moon is Illuminated
Jul 9
Waning Gibbous
Jul 10
Last Quarter
Jul 19
New
Jul 26
First Quarter
Aug 1
Full

Hourly Weather History & Observations

Time (EDT) Temp. Dew Point Humidity Pressure Visibility Wind Dir Wind Speed Gust Speed Precip Events Conditions
12:53 AM 54.0 °F 51.1 °F 90% 29.88 in 10.0 mi Calm Calm - N/A   Clear
1:53 AM 53.1 °F 50.0 °F 89% 29.89 in 10.0 mi Calm Calm - N/A   Clear
2:53 AM 51.1 °F 48.0 °F 89% 29.89 in 10.0 mi Calm Calm - N/A   Clear
3:53 AM 51.1 °F 48.0 °F 89% 29.90 in 7.0 mi Calm Calm - N/A   Clear
4:53 AM 50.0 °F 46.0 °F 86% 29.91 in 7.0 mi Calm Calm - N/A   Clear
5:53 AM 48.9 °F 46.0 °F 90% 29.92 in 10.0 mi Calm Calm - N/A   Clear
6:11 AM 51.8 °F 48.2 °F 88% 29.94 in 7.0 mi Calm Calm - N/A   Scattered Clouds
6:13 AM 51.8 °F 48.2 °F 88% 29.94 in 1.2 mi Calm Calm - N/A   Scattered Clouds
6:15 AM 51.8 °F 50.0 °F 94% 29.94 in 0.8 mi Calm Calm - N/A   Mist
6:26 AM 51.8 °F 48.2 °F 88% 29.94 in 1.5 mi Calm Calm - N/A   Scattered Clouds
6:33 AM 51.8 °F 48.2 °F 88% 29.94 in 10.0 mi Calm Calm - N/A   Clear
6:53 AM 54.0 °F 51.1 °F 90% 29.94 in 10.0 mi Calm Calm - N/A   Clear
7:53 AM 59.0 °F 53.1 °F 81% 29.94 in 10.0 mi Calm Calm - N/A   Clear
8:53 AM 64.9 °F 52.0 °F 63% 29.95 in 10.0 mi Calm Calm - N/A   Clear
9:53 AM 71.1 °F 52.0 °F 51% 29.93 in 10.0 mi Variable 4.6 mph - N/A   Clear
10:53 AM 75.0 °F 46.0 °F 36% 29.92 in 10.0 mi Variable 5.8 mph - N/A   Partly Cloudy
11:53 AM 75.9 °F 45.0 °F 33% 29.92 in 10.0 mi North 10.4 mph - N/A   Scattered Clouds
12:53 PM 79.0 °F 44.1 °F 29% 29.92 in 10.0 mi NNW 13.8 mph 19.6 mph N/A   Clear
1:53 PM 79.0 °F 45.0 °F 30% 29.92 in 10.0 mi North 8.1 mph 19.6 mph N/A   Clear
2:53 PM 79.0 °F 45.0 °F 30% 29.92 in 10.0 mi NNW 5.8 mph 17.3 mph N/A   Clear
3:53 PM 80.1 °F 45.0 °F 29% 29.91 in 10.0 mi WNW 9.2 mph 17.3 mph N/A   Partly Cloudy
4:53 PM 80.1 °F 44.1 °F 28% 29.91 in 10.0 mi NW 11.5 mph - N/A   Clear
5:53 PM 79.0 °F 42.1 °F 27% 29.92 in 10.0 mi NW 6.9 mph - N/A   Clear
6:53 PM 77.0 °F 37.9 °F 24% 29.92 in 10.0 mi NNW 8.1 mph - N/A   Clear
7:53 PM 70.0 °F 45.0 °F 41% 29.94 in 10.0 mi NE 5.8 mph - N/A   Clear
8:53 PM 60.1 °F 48.0 °F 64% 29.96 in 10.0 mi Calm Calm - N/A   Clear
9:53 PM 55.9 °F 46.9 °F 72% 29.98 in 10.0 mi Calm Calm - N/A   Clear
10:53 PM 53.6 °F 46.4 °F 77% 30.01 in 10.0 mi Calm Calm - N/A   Clear
11:53 PM 51.1 °F 45.0 °F 80% 30.00 in 10.0 mi Calm Calm - N/A   Clear